| time (UTC) | temp F | wind direction | speed knots | gust knots | rain 1hr in | rain 24hr in | rain mn in | humidity % | barometer mb |
| 20260904073649 | 71 | 192 | 0.0 | 0.0 | 0.00 | 0.00 | 0.00 | 97 | 993.1 |
| 20260904072147 | 71 | 178 | 0.0 | 0.0 | 0.00 | 0.00 | 0.00 | 97 | 993.8 |
| 20260904070643 | 71 | 43 | 0.9 | 1.7 | 0.00 | 0.00 | 0.00 | 97 | 993.5 |
| 20260904065141 | 71 | 129 | 0.0 | 0.0 | 0.00 | 0.00 | 0.00 | 97 | 993.6 |
| 20260904063638 | 71 | 174 | 0.0 | 0.9 | 0.00 | 0.00 | 0.00 | 96 | 992.9 |
| 20260904062137 | 71 | 157 | 2.6 | 5.2 | 0.00 | 0.00 | 0.00 | 95 | 993.5 |
| 20260904060636 | 72 | 149 | 2.6 | 2.6 | 0.00 | 0.00 | 0.00 | 94 | 994.2 |
| 20260904055133 | 71 | 191 | 0.9 | 0.9 | 0.00 | 0.00 | 0.00 | 98 | 994.6 |
| 20260904053631 | 70 | 321 | 0.0 | 0.0 | 0.00 | 0.00 | 0.00 | 99 | 994.9 |
| 20260904052130 | 70 | 176 | 0.0 | 0.0 | 0.00 | 0.00 | 0.00 | 99 | 994.5 |
| 20260904050628 | 70 | 194 | 0.0 | 0.0 | 0.00 | 0.00 | 0.00 | 99 | 994.4 |
| 20260904045124 | 70 | 193 | 0.0 | 0.0 | 0.00 | 0.00 | 0.00 | 99 | 994.5 |
| 20260904043624 | 70 | 180 | 0.0 | 0.0 | 0.00 | 0.00 | 0.00 | 99 | 994.6 |
| 20260904042122 | 70 | 210 | 0.0 | 0.0 | 0.00 | 0.00 | 0.00 | 99 | 994.8 |
| 20260904040621 | 70 | 198 | 0.0 | 0.0 | 0.00 | 0.00 | 0.00 | 99 | 994.9 |
| 20260904035118 | 70 | 174 | 0.0 | 0.0 | 0.00 | 0.24 | 0.24 | 99 | 995.1 |
| 20260904033615 | 70 | 191 | 0.0 | 0.0 | 0.00 | 0.24 | 0.24 | 99 | 995.3 |
| 20260904032112 | 71 | 192 | 0.0 | 0.0 | 0.00 | 0.24 | 0.24 | 98 | 995.3 |
| 20260904030609 | 71 | 186 | 0.0 | 0.0 | 0.00 | 0.24 | 0.24 | 98 | 995.2 |
| 20260904025107 | 71 | 182 | 0.0 | 0.0 | 0.00 | 0.24 | 0.24 | 97 | 995.1 |
| 20260904023606 | 72 | 171 | 0.0 | 1.7 | 0.00 | 0.24 | 0.24 | 97 | 995.2 |
| 20260904022104 | 72 | 166 | 0.0 | 1.7 | 0.00 | 0.24 | 0.24 | 97 | 994.8 |
| 20260904020601 | 71 | 192 | 0.0 | 0.0 | 0.00 | 0.24 | 0.24 | 97 | 994.5 |
| 20260904015101 | 72 | 192 | 0.0 | 0.0 | 0.00 | 0.24 | 0.24 | 97 | 994.7 |
| 20260904013600 | 72 | 160 | 0.0 | 0.9 | 0.00 | 0.24 | 0.24 | 97 | 994.5 |
| 20260904012055 | 73 | 176 | 0.0 | 0.0 | 0.00 | 0.24 | 0.24 | 97 | 994.6 |
| 20260904010552 | 73 | 184 | 0.0 | 0.0 | 0.00 | 0.24 | 0.24 | 96 | 994.5 |
| 20260904005049 | 73 | 180 | 0.0 | 0.9 | 0.00 | 0.24 | 0.24 | 96 | 994.3 |
| 20260904003547 | 73 | 173 | 0.0 | 0.0 | 0.00 | 0.24 | 0.24 | 96 | 994.2 |
| 20260904002044 | 74 | 193 | 0.0 | 0.0 | 0.00 | 0.24 | 0.24 | 94 | 994.1 |
| 20260904000538 | 75 | 194 | 0.0 | 0.0 | 0.00 | 0.24 | 0.24 | 93 | 993.7 |
| 20260903235037 | 76 | 181 | 0.0 | 0.0 | 0.00 | 0.24 | 0.24 | 92 | 993.5 |
| 20260903233535 | 77 | 36 | 2.6 | 2.6 | 0.00 | 0.24 | 0.24 | 91 | 993.6 |
| 20260903232032 | 78 | 231 | 0.9 | 1.7 | 0.00 | 0.24 | 0.24 | 89 | 993.6 |
| 20260903230529 | 78 | 154 | 1.7 | 3.5 | 0.00 | 0.24 | 0.24 | 88 | 993.4 |
| 20260903225027 | 78 | 186 | 0.0 | 0.9 | 0.00 | 0.24 | 0.24 | 88 | 993.5 |
| 20260903223524 | 79 | 189 | 0.9 | 0.9 | 0.00 | 0.24 | 0.24 | 86 | 993.3 |
| 20260903222023 | 80 | 187 | 0.0 | 0.0 | 0.00 | 0.24 | 0.24 | 85 | 993.4 |
| 20260903220521 | 81 | 166 | 1.7 | 1.7 | 0.00 | 0.24 | 0.24 | 82 | 993.5 |
| 20260903215021 | 78 | 176 | 0.0 | 0.0 | 0.00 | 0.24 | 0.24 | 88 | 993.7 |
| 20260903213516 | 80 | 185 | 0.0 | 0.9 | 0.00 | 0.24 | 0.24 | 85 | 993.9 |
| 20260903212014 | 79 | 174 | 1.7 | 1.7 | 0.00 | 0.24 | 0.24 | 87 | 993.9 |
| 20260903210512 | 77 | 189 | 0.0 | 0.9 | 0.00 | 0.24 | 0.24 | 93 | 993.9 |
| 20260903205008 | 76 | 199 | 0.9 | 1.7 | 0.00 | 0.24 | 0.24 | 94 | 993.5 |
| 20260903203507 | 75 | 117 | 1.7 | 2.6 | 0.00 | 0.24 | 0.24 | 96 | 993.2 |
| 20260903202003 | 74 | 180 | 0.0 | 0.0 | 0.00 | 0.24 | 0.24 | 97 | 993.5 |
| 20260903200503 | 74 | 283 | 1.7 | 2.6 | 0.00 | 0.24 | 0.24 | 96 | 994.1 |
| 20260903195001 | 74 | 210 | 0.0 | 0.9 | 0.00 | 0.24 | 0.24 | 95 | 994.1 |
| 20260903193500 | 75 | 293 | 0.9 | 1.7 | 0.00 | 0.24 | 0.24 | 94 | 994.5 |
| 20260903191958 | 75 | 197 | 0.0 | 0.9 | 0.00 | 0.24 | 0.24 | 93 | 994.7 |
| 20260903190454 | 74 | 283 | 1.7 | 1.7 | 0.05 | 0.24 | 0.24 | 94 | 994.3 |
| 20260903184949 | 73 | 256 | 1.7 | 2.6 | 0.12 | 0.23 | 0.23 | 94 | 995.5 |
| 20260903183447 | 73 | 275 | 2.6 | 3.5 | 0.19 | 0.20 | 0.20 | 93 | 995.8 |
| 20260903181948 | 74 | 312 | 2.6 | 5.2 | 0.05 | 0.17 | 0.17 | 90 | 996.1 |
| 20260903180442 | 77 | 27 | 1.7 | 7.0 | 0.00 | 0.16 | 0.16 | 83 | 996.5 |
| 20260903174941 | 79 | 336 | 2.6 | 8.7 | 0.00 | 0.16 | 0.16 | 79 | 996.0 |
| 20260903173437 | 79 | 305 | 3.5 | 7.8 | 0.00 | 0.16 | 0.16 | 83 | 995.5 |
| 20260903171935 | 80 | 210 | 1.7 | 5.2 | 0.00 | 0.16 | 0.16 | 84 | 994.7 |
| 20260903170430 | 80 | 320 | 5.2 | 7.0 | 0.00 | 0.16 | 0.16 | 85 | 994.5 |
| 20260903164930 | 81 | 268 | 6.1 | 7.8 | 0.00 | 0.16 | 0.16 | 84 | 993.8 |
| 20260903163427 | 82 | 268 | 2.6 | 6.1 | 0.00 | 0.16 | 0.16 | 82 | 993.1 |
| 20260903161926 | 83 | 217 | 5.2 | 7.0 | 0.00 | 0.16 | 0.16 | 80 | 992.8 |
| 20260903160422 | 83 | 156 | 3.5 | 7.0 | 0.00 | 0.16 | 0.16 | 79 | 993.1 |
| 20260903154918 | 83 | 156 | 1.7 | 7.0 | 0.00 | 0.16 | 0.16 | 81 | 993.1 |
| 20260903153415 | 83 | 202 | 5.2 | 7.0 | 0.00 | 0.16 | 0.16 | 80 | 993.5 |
| 20260903151914 | 84 | 232 | 3.5 | 5.2 | 0.00 | 0.16 | 0.16 | 79 | 993.5 |
| 20260903150410 | 84 | 200 | 1.7 | 2.6 | 0.00 | 0.16 | 0.16 | 81 | 993.9 |
| 20260903144905 | 84 | 185 | 1.7 | 2.6 | 0.00 | 0.16 | 0.16 | 82 | 993.6 |
| 20260903143405 | 84 | 250 | 0.9 | 2.6 | 0.00 | 0.16 | 0.16 | 81 | 993.6 |
| 20260903141902 | 84 | 194 | 1.7 | 3.5 | 0.00 | 0.16 | 0.16 | 83 | 993.5 |
| 20260903140400 | 85 | 178 | 3.5 | 5.2 | 0.00 | 0.16 | 0.16 | 80 | 993.3 |
| 20260903134855 | 83 | 180 | 0.9 | 3.5 | 0.00 | 0.16 | 0.16 | 84 | 993.3 |
| 20260903133351 | 80 | 225 | 2.6 | 2.6 | 0.00 | 0.16 | 0.16 | 90 | 993.5 |
| 20260903131847 | 77 | 196 | 0.0 | 2.6 | 0.00 | 0.16 | 0.16 | 97 | 993.4 |
| 20260903130346 | 76 | 182 | 0.9 | 1.7 | 0.00 | 0.16 | 0.16 | 99 | 993.5 |
| 20260903124845 | 75 | 182 | 0.0 | 0.9 | 0.00 | 0.16 | 0.16 | 99 | 993.4 |
| 20260903123340 | 75 | 162 | 0.0 | 0.0 | 0.00 | 0.16 | 0.16 | 99 | 993.5 |
| 20260903121839 | 74 | 190 | 0.9 | 1.7 | 0.00 | 0.16 | 0.16 | 99 | 993.7 |
| 20260903120334 | 74 | 189 | 0.0 | 0.9 | 0.00 | 0.16 | 0.16 | 99 | 993.8 |
| 20260903114833 | 74 | 192 | 0.0 | 1.7 | 0.00 | 0.16 | 0.16 | 99 | 993.7 |
| 20260903113332 | 74 | 191 | 1.7 | 1.7 | 0.00 | 0.16 | 0.16 | 99 | 993.7 |
| 20260903111828 | 74 | 155 | 0.0 | 0.9 | 0.73 | 0.16 | 0.16 | 99 | 993.7 |
| 20260903110326 | 72 | 164 | 0.0 | 0.0 | 0.00 | 0.00 | 0.00 | 99 | 993.6 |
| 20260903104826 | 71 | 164 | 0.0 | 0.0 | 0.00 | 0.00 | 0.00 | 99 | 993.7 |
| 20260903103325 | 72 | 167 | 0.0 | 0.0 | 0.00 | 0.00 | 0.00 | 99 | 993.5 |
| 20260903101820 | 71 | 165 | 0.0 | 0.0 | 0.00 | 0.00 | 0.00 | 99 | 993.4 |
| 20260903100317 | 72 | 167 | 0.0 | 0.0 | 0.00 | 0.00 | 0.00 | 99 | 993.6 |
| 20260903094816 | 72 | 168 | 0.0 | 0.0 | 0.00 | 0.00 | 0.00 | 99 | 993.6 |
| 20260903093313 | 72 | 178 | 0.0 | 0.0 | 0.00 | 0.00 | 0.00 | 99 | 993.5 |
| 20260903091813 | 71 | 169 | 0.0 | 0.0 | 0.00 | 0.00 | 0.00 | 99 | 993.6 |
| 20260903090308 | 72 | 170 | 0.0 | 0.0 | 0.00 | 0.00 | 0.00 | 99 | 993.7 |
| 20260903084805 | 72 | 172 | 0.0 | 0.0 | 0.00 | 0.00 | 0.00 | 99 | 993.5 |
| 20260903083301 | 72 | 173 | 0.0 | 0.0 | 0.00 | 0.00 | 0.00 | 99 | 993.3 |
| 20260903081756 | 72 | 179 | 0.0 | 0.0 | 0.00 | 0.00 | 0.00 | 99 | 993.5 |
| 20260903080251 | 72 | 181 | 0.0 | 0.0 | 0.00 | 0.00 | 0.00 | 99 | 993.5 |
| 20260903074750 | 72 | 183 | 0.0 | 0.0 | 0.00 | 0.00 | 0.00 | 99 | 993.6 |